This is the latest recevied weather packets stored in our database for station/object KJ7IVE-13. If no packets are shown the sender has not sent any weather packets the latest 1 day(s).
| Time | Temp. | Humidity | Pressure | Rain* | Wind** | Luminosity | Snow |
|---|---|---|---|---|---|---|---|
| 1778043759 | 13.89° C | 10% | 1011.7 hPa | 0 mm | 0.89 m/s, 166° | 0 W/m² | - |
| 1778043455 | 13.89° C | 10% | 1011.9 hPa | 0 mm | 0.45 m/s, 204° | 0 W/m² | - |
| 1778043152 | 13.89° C | 10% | 1011.5 hPa | 0 mm | 0 m/s | 0 W/m² | - |
| 1778042849 | 13.89° C | 10% | 1011.6 hPa | 0 mm | 0 m/s | 0 W/m² | - |
| 1778042547 | 13.89° C | 10% | 1011.4 hPa | 0 mm | 0.89 m/s, 156° | 0 W/m² | - |
| 1778042244 | 14.44° C | 10% | 1011.6 hPa | 0 mm | 0.89 m/s, 152° | 0 W/m² | - |
| 1778041941 | 13.89° C | 10% | 1011.8 hPa | 0 mm | 1.34 m/s, 122° | 0 W/m² | - |
| 1778041641 | 14.44° C | 10% | 1011.5 hPa | 0 mm | 1.34 m/s, 129° | 0 W/m² | - |
| 1778041339 | 13.89° C | 10% | 1011.3 hPa | 0 mm | 1.34 m/s, 142° | 0 W/m² | - |
| 1778041037 | 14.44° C | 10% | 1011.6 hPa | 0 mm | 0.45 m/s, 146° | 0 W/m² | - |
| 1778040734 | 13.89° C | 10% | 1011.3 hPa | 0 mm | 0.89 m/s, 82° | 0 W/m² | - |
| 1778040431 | 13.89° C | 10% | 1011.5 hPa | 0 mm | 0.45 m/s, 127° | 0 W/m² | - |
| 1778040128 | 13.33° C | 10% | 1011.7 hPa | 0 mm | 0.45 m/s, 196° | 0 W/m² | - |
| 1778039824 | 13.89° C | 10% | 1011.5 hPa | 0 mm | 0.45 m/s, 229° | 0 W/m² | - |
| 1778039521 | 13.89° C | 10% | 1011.3 hPa | 0 mm | 0.89 m/s, 218° | 0 W/m² | - |
| 1778039218 | 13.89° C | 10% | 1011 hPa | 0 mm | 0 m/s | 0 W/m² | - |
| 1778038915 | 13.89° C | 10% | 1010.8 hPa | 0 mm | 0.45 m/s, 141° | 0 W/m² | - |
| 1778038613 | 13.33° C | 10% | 1010.9 hPa | 0 mm | 0 m/s | 0 W/m² | - |
| 1778038309 | 13.89° C | 10% | 1010.8 hPa | 0 mm | 0.45 m/s, 231° | 0 W/m² | - |
| 1778038006 | 14.44° C | 10% | 1011 hPa | 0 mm | 0.45 m/s, 186° | 0 W/m² | - |
| 1778037703 | 14.44° C | 10% | 1011 hPa | 0 mm | 0.45 m/s, 169° | 0 W/m² | - |
| 1778037400 | 14.44° C | 10% | 1010.8 hPa | 0 mm | 0.89 m/s, 167° | 0 W/m² | - |
| 1778037097 | 14.44° C | 10% | 1010.9 hPa | 0 mm | 0.45 m/s, 174° | 0 W/m² | - |
| 1778036796 | 14.44° C | 10% | 1010.6 hPa | 0 mm | 0.89 m/s, 156° | 0 W/m² | - |
| 1778036493 | 14.44° C | 10% | 1010.7 hPa | 0 mm | 0.89 m/s, 179° | 0 W/m² | - |
* Rain latest hour (hover to see other rain measurements)
** Current wind speed in m/s (hover to see current wind gust speed)